Private Wetterstation Sandau
Wetterdaten: Donnerstag, 06.09.2012
Datum Zeit Temp. A. Feuchte A. Luftdruck Regen Wind Richtung Richtung Taupunkt Windchill
06.09.2012 00:01 15,2 C 66 % 1022,5 hPa 0,0 l/m 5,4 km/h (1 Bft) NW 315 8,9 C 15,2 C
06.09.2012 00:01 15,2 C 66 % 1022,5 hPa 0,0 l/m 5,4 km/h (1 Bft) NW 315 8,9 C 15,2 C
06.09.2012 00:06 15,1 C 66 % 1022,6 hPa 0,0 l/m 4,7 km/h (1 Bft) NW 315 8,8 C 15,1 C
06.09.2012 00:06 15,1 C 66 % 1022,6 hPa 0,0 l/m 4,7 km/h (1 Bft) NW 315 8,8 C 15,1 C
06.09.2012 00:11 14,9 C 66 % 1022,6 hPa 0,0 l/m 4,0 km/h (1 Bft) NW 315 8,6 C 14,9 C
06.09.2012 00:11 14,9 C 66 % 1022,6 hPa 0,0 l/m 4,0 km/h (1 Bft) NW 315 8,6 C 14,9 C
06.09.2012 00:16 14,9 C 67 % 1022,7 hPa 0,0 l/m 7,6 km/h (2 Bft) N-NW 337 8,8 C 14,9 C
06.09.2012 00:16 14,9 C 67 % 1022,7 hPa 0,0 l/m 7,6 km/h (2 Bft) N-NW 337 8,8 C 14,9 C
06.09.2012 00:21 14,9 C 67 % 1022,7 hPa 0,0 l/m 4,0 km/h (1 Bft) NW 315 8,8 C 14,9 C
06.09.2012 00:21 14,9 C 67 % 1022,7 hPa 0,0 l/m 4,0 km/h (1 Bft) NW 315 8,8 C 14,9 C
06.09.2012 00:26 14,9 C 67 % 1022,8 hPa 0,0 l/m 6,5 km/h (2 Bft) N-NW 337 8,8 C 14,9 C
06.09.2012 00:26 14,9 C 67 % 1022,8 hPa 0,0 l/m 6,5 km/h (2 Bft) N-NW 337 8,8 C 14,9 C
06.09.2012 00:31 14,9 C 68 % 1022,9 hPa 0,0 l/m 12,2 km/h (2 Bft) W-NW 292 9,0 C 14,9 C
06.09.2012 00:31 14,9 C 68 % 1022,9 hPa 0,0 l/m 12,2 km/h (2 Bft) W-NW 292 9,0 C 14,9 C
06.09.2012 00:36 14,8 C 68 % 1022,9 hPa 0,0 l/m 5,4 km/h (1 Bft) N-NW 337 9,0 C 14,8 C
06.09.2012 00:36 14,8 C 68 % 1022,9 hPa 0,0 l/m 5,4 km/h (1 Bft) N-NW 337 9,0 C 14,8 C
06.09.2012 00:41 14,7 C 68 % 1022,8 hPa 0,0 l/m 5,8 km/h (2 Bft) NW 315 8,9 C 14,7 C
06.09.2012 00:41 14,7 C 68 % 1022,8 hPa 0,0 l/m 5,8 km/h (2 Bft) NW 315 8,9 C 14,7 C
06.09.2012 00:46 14,6 C 68 % 1022,9 hPa 0,0 l/m 6,5 km/h (2 Bft) W-NW 292 8,8 C 14,6 C
06.09.2012 00:46 14,6 C 68 % 1022,9 hPa 0,0 l/m 6,5 km/h (2 Bft) W-NW 292 8,8 C 14,6 C
06.09.2012 00:51 14,4 C 68 % 1022,9 hPa 0,0 l/m 9,4 km/h (2 Bft) NW 315 8,6 C 14,4 C
06.09.2012 00:51 14,4 C 68 % 1022,9 hPa 0,0 l/m 9,4 km/h (2 Bft) NW 315 8,6 C 14,4 C
06.09.2012 00:56 14,3 C 69 % 1022,9 hPa 0,0 l/m 5,8 km/h (2 Bft) NW 315 8,7 C 14,3 C
06.09.2012 00:56 14,3 C 69 % 1022,9 hPa 0,0 l/m 5,8 km/h (2 Bft) NW 315 8,7 C 14,3 C
06.09.2012 01:01 14,3 C 70 % 1022,9 hPa 0,0 l/m 5,0 km/h (1 Bft) W-NW 292 8,9 C 14,3 C
06.09.2012 01:01 14,3 C 70 % 1022,9 hPa 0,0 l/m 5,0 km/h (1 Bft) W-NW 292 8,9 C 14,3 C
06.09.2012 01:06 14,2 C 70 % 1022,9 hPa 0,0 l/m 6,5 km/h (2 Bft) W-NW 292 8,8 C 14,2 C
06.09.2012 01:06 14,2 C 70 % 1022,9 hPa 0,0 l/m 6,5 km/h (2 Bft) W-NW 292 8,8 C 14,2 C
06.09.2012 01:11 14,1 C 71 % 1022,9 hPa 0,0 l/m 2,9 km/h (1 Bft) NW 315 8,9 C 14,1 C
06.09.2012 01:11 14,1 C 71 % 1022,9 hPa 0,0 l/m 2,9 km/h (1 Bft) NW 315 8,9 C 14,1 C
06.09.2012 01:16 14,1 C 71 % 1023,0 hPa 0,0 l/m 8,3 km/h (2 Bft) NW 315 8,9 C 14,1 C
06.09.2012 01:16 14,1 C 71 % 1023,0 hPa 0,0 l/m 8,3 km/h (2 Bft) NW 315 8,9 C 14,1 C
06.09.2012 01:21 14,0 C 71 % 1023,0 hPa 0,0 l/m 3,6 km/h (1 Bft) NW 315 8,8 C 14,0 C
06.09.2012 01:21 14,0 C 71 % 1023,0 hPa 0,0 l/m 3,6 km/h (1 Bft) NW 315 8,8 C 14,0 C
06.09.2012 01:26 13,9 C 71 % 1023,1 hPa 0,0 l/m 1,4 km/h (1 Bft) W-NW 292 8,7 C 13,9 C
06.09.2012 01:26 13,9 C 71 % 1023,1 hPa 0,0 l/m 1,4 km/h (1 Bft) W-NW 292 8,7 C 13,9 C
06.09.2012 01:31 13,9 C 72 % 1023,1 hPa 0,0 l/m 8,3 km/h (2 Bft) W-NW 292 8,9 C 13,9 C
06.09.2012 01:31 13,9 C 72 % 1023,1 hPa 0,0 l/m 8,3 km/h (2 Bft) W-NW 292 8,9 C 13,9 C
06.09.2012 01:36 13,9 C 72 % 1023,2 hPa 0,0 l/m 5,4 km/h (1 Bft) W-NW 292 8,9 C 13,9 C
06.09.2012 01:36 13,9 C 72 % 1023,2 hPa 0,0 l/m 5,4 km/h (1 Bft) W-NW 292 8,9 C 13,9 C
06.09.2012 01:41 13,9 C 72 % 1023,1 hPa 0,0 l/m 2,5 km/h (1 Bft) W-NW 292 8,9 C 13,9 C
06.09.2012 01:41 13,9 C 72 % 1023,1 hPa 0,0 l/m 2,5 km/h (1 Bft) W-NW 292 8,9 C 13,9 C
06.09.2012 01:46 13,9 C 72 % 1023,1 hPa 0,0 l/m 5,4 km/h (1 Bft) W-NW 292 8,9 C 13,9 C
06.09.2012 01:46 13,9 C 72 % 1023,1 hPa 0,0 l/m 5,4 km/h (1 Bft) W-NW 292 8,9 C 13,9 C
06.09.2012 01:51 13,9 C 72 % 1023,0 hPa 0,0 l/m 7,6 km/h (2 Bft) W 270 8,9 C 13,9 C
06.09.2012 01:51 13,9 C 72 % 1023,0 hPa 0,0 l/m 7,6 km/h (2 Bft) W 270 8,9 C 13,9 C
06.09.2012 01:56 13,9 C 72 % 1023,1 hPa 0,0 l/m 6,5 km/h (2 Bft) W-NW 292 8,9 C 13,9 C
06.09.2012 01:56 13,9 C 72 % 1023,1 hPa 0,0 l/m 6,5 km/h (2 Bft) W-NW 292 8,9 C 13,9 C
06.09.2012 02:01 13,9 C 72 % 1023,2 hPa 0,0 l/m 6,5 km/h (2 Bft) W 270 8,9 C 13,9 C
06.09.2012 02:01 13,9 C 72 % 1023,2 hPa 0,0 l/m 6,5 km/h (2 Bft) W 270 8,9 C 13,9 C
06.09.2012 02:06 13,9 C 72 % 1023,2 hPa 0,0 l/m 3,2 km/h (1 Bft) W-NW 292 8,9 C 13,9 C
06.09.2012 02:06 13,9 C 72 % 1023,2 hPa 0,0 l/m 3,2 km/h (1 Bft) W-NW 292 8,9 C 13,9 C
06.09.2012 02:11 13,9 C 72 % 1023,1 hPa 0,0 l/m 6,1 km/h (2 Bft) W-NW 292 8,9 C 13,9 C
06.09.2012 02:11 13,9 C 72 % 1023,1 hPa 0,0 l/m 6,1 km/h (2 Bft) W-NW 292 8,9 C 13,9 C
06.09.2012 02:16 13,9 C 72 % 1023,1 hPa 0,0 l/m 5,4 km/h (1 Bft) W-NW 292 8,9 C 13,9 C
06.09.2012 02:16 13,9 C 72 % 1023,1 hPa 0,0 l/m 5,4 km/h (1 Bft) W-NW 292 8,9 C 13,9 C
06.09.2012 02:21 13,9 C 73 % 1023,2 hPa 0,0 l/m 2,2 km/h (1 Bft) W 270 9,1 C 13,9 C
06.09.2012 02:21 13,9 C 73 % 1023,2 hPa 0,0 l/m 2,2 km/h (1 Bft) W 270 9,1 C 13,9 C
06.09.2012 02:26 13,9 C 73 % 1023,1 hPa 0,0 l/m 5,4 km/h (1 Bft) NW 315 9,1 C 13,9 C
06.09.2012 02:26 13,9 C 73 % 1023,1 hPa 0,0 l/m 5,4 km/h (1 Bft) NW 315 9,1 C 13,9 C
06.09.2012 02:31 13,8 C 73 % 1023,2 hPa 0,0 l/m 7,9 km/h (2 Bft) W-NW 292 9,0 C 13,8 C
06.09.2012 02:31 13,8 C 73 % 1023,2 hPa 0,0 l/m 7,9 km/h (2 Bft) W-NW 292 9,0 C 13,8 C
06.09.2012 02:36 13,8 C 73 % 1023,3 hPa 0,0 l/m 6,5 km/h (2 Bft) W-NW 292 9,0 C 13,8 C
06.09.2012 02:36 13,8 C 73 % 1023,3 hPa 0,0 l/m 6,5 km/h (2 Bft) W-NW 292 9,0 C 13,8 C
06.09.2012 02:41 13,8 C 73 % 1023,3 hPa 0,0 l/m 4,7 km/h (1 Bft) W-SW 247 9,0 C 13,8 C
06.09.2012 02:41 13,8 C 73 % 1023,3 hPa 0,0 l/m 4,7 km/h (1 Bft) W-SW 247 9,0 C 13,8 C
06.09.2012 02:46 13,8 C 73 % 1023,3 hPa 0,0 l/m 3,2 km/h (1 Bft) W 270 9,0 C 13,8 C
06.09.2012 02:46 13,8 C 73 % 1023,3 hPa 0,0 l/m 3,2 km/h (1 Bft) W 270 9,0 C 13,8 C
06.09.2012 02:51 13,7 C 73 % 1023,4 hPa 0,0 l/m 2,9 km/h (1 Bft) W 270 8,9 C 13,7 C
06.09.2012 02:51 13,7 C 73 % 1023,4 hPa 0,0 l/m 2,9 km/h (1 Bft) W 270 8,9 C 13,7 C
06.09.2012 02:56 13,6 C 73 % 1023,6 hPa 0,0 l/m 8,3 km/h (2 Bft) W-NW 292 8,9 C 13,6 C
06.09.2012 02:56 13,6 C 73 % 1023,6 hPa 0,0 l/m 8,3 km/h (2 Bft) W-NW 292 8,9 C 13,6 C
06.09.2012 03:01 13,6 C 73 % 1023,6 hPa 0,0 l/m 5,8 km/h (2 Bft) W 270 8,9 C 13,6 C
06.09.2012 03:01 13,6 C 73 % 1023,6 hPa 0,0 l/m 5,8 km/h (2 Bft) W 270 8,9 C 13,6 C
06.09.2012 03:06 13,6 C 73 % 1023,6 hPa 0,0 l/m 4,7 km/h (1 Bft) W 270 8,9 C 13,6 C
06.09.2012 03:06 13,6 C 73 % 1023,6 hPa 0,0 l/m 4,7 km/h (1 Bft) W 270 8,9 C 13,6 C
06.09.2012 03:11 13,6 C 74 % 1023,5 hPa 0,0 l/m 5,0 km/h (1 Bft) W 270 9,1 C 13,6 C
06.09.2012 03:11 13,6 C 74 % 1023,5 hPa 0,0 l/m 5,0 km/h (1 Bft) W 270 9,1 C 13,6 C
06.09.2012 03:16 13,6 C 74 % 1023,7 hPa 0,0 l/m 6,1 km/h (2 Bft) NW 315 9,1 C 13,6 C
06.09.2012 03:16 13,6 C 74 % 1023,7 hPa 0,0 l/m 6,1 km/h (2 Bft) NW 315 9,1 C 13,6 C
06.09.2012 03:21 13,6 C 74 % 1023,6 hPa 0,0 l/m 3,2 km/h (1 Bft) NW 315 9,1 C 13,6 C
06.09.2012 03:21 13,6 C 74 % 1023,6 hPa 0,0 l/m 3,2 km/h (1 Bft) NW 315 9,1 C 13,6 C
06.09.2012 03:26 13,6 C 74 % 1023,6 hPa 0,0 l/m 2,5 km/h (1 Bft) NW 315 9,1 C 13,6 C
06.09.2012 03:26 13,6 C 74 % 1023,6 hPa 0,0 l/m 2,5 km/h (1 Bft) NW 315 9,1 C 13,6 C
06.09.2012 03:31 13,6 C 74 % 1023,7 hPa 0,0 l/m 9,7 km/h (2 Bft) NW 315 9,1 C 13,6 C
06.09.2012 03:31 13,6 C 74 % 1023,7 hPa 0,0 l/m 9,7 km/h (2 Bft) NW 315 9,1 C 13,6 C
06.09.2012 03:36 13,6 C 74 % 1023,6 hPa 0,0 l/m 2,5 km/h (1 Bft) W-NW 292 9,1 C 13,6 C
06.09.2012 03:36 13,6 C 74 % 1023,6 hPa 0,0 l/m 2,5 km/h (1 Bft) W-NW 292 9,1 C 13,6 C
06.09.2012 03:41 13,6 C 74 % 1023,7 hPa 0,0 l/m 3,6 km/h (1 Bft) NW 315 9,1 C 13,6 C
06.09.2012 03:41 13,6 C 74 % 1023,7 hPa 0,0 l/m 3,6 km/h (1 Bft) NW 315 9,1 C 13,6 C
06.09.2012 03:46 13,6 C 74 % 1023,8 hPa 0,0 l/m 6,1 km/h (2 Bft) NW 315 9,1 C 13,6 C
06.09.2012 03:46 13,6 C 74 % 1023,8 hPa 0,0 l/m 6,1 km/h (2 Bft) NW 315 9,1 C 13,6 C
06.09.2012 03:51 13,6 C 74 % 1023,8 hPa 0,0 l/m 4,7 km/h (1 Bft) W-SW 247 9,1 C 13,6 C
06.09.2012 03:51 13,6 C 74 % 1023,8 hPa 0,0 l/m 4,7 km/h (1 Bft) W-SW 247 9,1 C 13,6 C
06.09.2012 03:56 13,6 C 74 % 1023,8 hPa 0,0 l/m 7,2 km/h (2 Bft) NW 315 9,1 C 13,6 C
06.09.2012 03:56 13,6 C 74 % 1023,8 hPa 0,0 l/m 7,2 km/h (2 Bft) NW 315 9,1 C 13,6 C
06.09.2012 04:01 13,6 C 74 % 1023,9 hPa 0,0 l/m 4,7 km/h (1 Bft) NW 315 9,1 C 13,6 C
06.09.2012 04:01 13,6 C 74 % 1023,9 hPa 0,0 l/m 4,7 km/h (1 Bft) NW 315 9,1 C 13,6 C
06.09.2012 04:06 13,6 C 74 % 1023,7 hPa 0,0 l/m 7,6 km/h (2 Bft) N 360 9,1 C 13,6 C
06.09.2012 04:06 13,6 C 74 % 1023,7 hPa 0,0 l/m 7,6 km/h (2 Bft) N 360 9,1 C 13,6 C
06.09.2012 04:11 13,6 C 74 % 1023,8 hPa 0,0 l/m 10,1 km/h (2 Bft) W-NW 292 9,1 C 13,6 C
06.09.2012 04:11 13,6 C 74 % 1023,8 hPa 0,0 l/m 10,1 km/h (2 Bft) W-NW 292 9,1 C 13,6 C
06.09.2012 04:16 13,6 C 74 % 1023,8 hPa 0,0 l/m 3,6 km/h (1 Bft) W-NW 292 9,1 C 13,6 C
06.09.2012 04:16 13,6 C 74 % 1023,8 hPa 0,0 l/m 3,6 km/h (1 Bft) W-NW 292 9,1 C 13,6 C
06.09.2012 04:21 13,6 C 74 % 1023,7 hPa 0,0 l/m 9,4 km/h (2 Bft) NW 315 9,1 C 13,6 C
06.09.2012 04:21 13,6 C 74 % 1023,7 hPa 0,0 l/m 9,4 km/h (2 Bft) NW 315 9,1 C 13,6 C
06.09.2012 04:26 13,6 C 74 % 1023,7 hPa 0,0 l/m 6,1 km/h (2 Bft) W-NW 292 9,1 C 13,6 C
06.09.2012 04:26 13,6 C 74 % 1023,7 hPa 0,0 l/m 6,1 km/h (2 Bft) W-NW 292 9,1 C 13,6 C
06.09.2012 04:31 13,6 C 74 % 1023,8 hPa 0,0 l/m 7,6 km/h (2 Bft) W-NW 292 9,1 C 13,6 C
06.09.2012 04:31 13,6 C 74 % 1023,8 hPa 0,0 l/m 7,6 km/h (2 Bft) W-NW 292 9,1 C 13,6 C
06.09.2012 04:36 13,5 C 75 % 1023,8 hPa 0,0 l/m 9,0 km/h (2 Bft) NW 315 9,2 C 13,5 C
06.09.2012 04:36 13,5 C 75 % 1023,8 hPa 0,0 l/m 9,0 km/h (2 Bft) NW 315 9,2 C 13,5 C
06.09.2012 04:41 13,5 C 75 % 1023,8 hPa 0,0 l/m 5,8 km/h (2 Bft) NW 315 9,2 C 13,5 C
06.09.2012 04:41 13,5 C 75 % 1023,8 hPa 0,0 l/m 5,8 km/h (2 Bft) NW 315 9,2 C 13,5 C
06.09.2012 04:46 13,4 C 75 % 1023,9 hPa 0,0 l/m 9,0 km/h (2 Bft) W 270 9,1 C 13,4 C
06.09.2012 04:46 13,4 C 75 % 1023,9 hPa 0,0 l/m 9,0 km/h (2 Bft) W 270 9,1 C 13,4 C
06.09.2012 04:51 13,3 C 75 % 1023,9 hPa 0,0 l/m 11,5 km/h (2 Bft) NW 315 9,0 C 13,3 C
06.09.2012 04:51 13,3 C 75 % 1023,9 hPa 0,0 l/m 11,5 km/h (2 Bft) NW 315 9,0 C 13,3 C
06.09.2012 04:56 13,2 C 75 % 1023,8 hPa 0,0 l/m 10,8 km/h (2 Bft) W 270 8,9 C 13,2 C
06.09.2012 04:56 13,2 C 75 % 1023,8 hPa 0,0 l/m 10,8 km/h (2 Bft) W 270 8,9 C 13,2 C
06.09.2012 05:01 13,1 C 75 % 1023,9 hPa 0,0 l/m 9,7 km/h (2 Bft) NW 315 8,8 C 13,1 C
06.09.2012 05:01 13,1 C 75 % 1023,9 hPa 0,0 l/m 9,7 km/h (2 Bft) NW 315 8,8 C 13,1 C
06.09.2012 05:06 12,9 C 75 % 1023,9 hPa 0,0 l/m 4,0 km/h (1 Bft) W-NW 292 8,6 C 12,9 C
06.09.2012 05:06 12,9 C 75 % 1023,9 hPa 0,0 l/m 4,0 km/h (1 Bft) W-NW 292 8,6 C 12,9 C
06.09.2012 05:11 12,9 C 76 % 1023,9 hPa 0,0 l/m 3,2 km/h (1 Bft) W-NW 292 8,8 C 12,9 C
06.09.2012 05:11 12,9 C 76 % 1023,9 hPa 0,0 l/m 3,2 km/h (1 Bft) W-NW 292 8,8 C 12,9 C
06.09.2012 05:16 12,8 C 76 % 1023,9 hPa 0,0 l/m 4,7 km/h (1 Bft) W-NW 292 8,7 C 12,8 C
06.09.2012 05:16 12,8 C 76 % 1023,9 hPa 0,0 l/m 4,7 km/h (1 Bft) W-NW 292 8,7 C 12,8 C
06.09.2012 05:21 12,6 C 77 % 1024,0 hPa 0,0 l/m 5,4 km/h (1 Bft) NW 315 8,7 C 12,6 C
06.09.2012 05:21 12,6 C 77 % 1024,0 hPa 0,0 l/m 5,4 km/h (1 Bft) NW 315 8,7 C 12,6 C
06.09.2012 05:26 12,5 C 77 % 1023,9 hPa 0,0 l/m 1,4 km/h (1 Bft) W-NW 292 8,6 C 12,5 C
06.09.2012 05:26 12,5 C 77 % 1023,9 hPa 0,0 l/m 1,4 km/h (1 Bft) W-NW 292 8,6 C 12,5 C
06.09.2012 05:31 12,4 C 77 % 1024,0 hPa 0,0 l/m 7,2 km/h (2 Bft) W-NW 292 8,5 C 12,4 C
06.09.2012 05:31 12,4 C 77 % 1024,0 hPa 0,0 l/m 7,2 km/h (2 Bft) W-NW 292 8,5 C 12,4 C
06.09.2012 05:36 12,3 C 77 % 1024,0 hPa 0,0 l/m 9,4 km/h (2 Bft) W-NW 292 8,4 C 12,3 C
06.09.2012 05:36 12,3 C 77 % 1024,0 hPa 0,0 l/m 9,4 km/h (2 Bft) W-NW 292 8,4 C 12,3 C
06.09.2012 05:41 12,2 C 78 % 1023,9 hPa 0,0 l/m 5,8 km/h (2 Bft) W-NW 292 8,5 C 12,2 C
06.09.2012 05:41 12,2 C 78 % 1023,9 hPa 0,0 l/m 5,8 km/h (2 Bft) W-NW 292 8,5 C 12,2 C
06.09.2012 05:46 12,1 C 78 % 1024,0 hPa 0,0 l/m 4,7 km/h (1 Bft) W-NW 292 8,4 C 12,1 C
06.09.2012 05:46 12,1 C 78 % 1024,0 hPa 0,0 l/m 4,7 km/h (1 Bft) W-NW 292 8,4 C 12,1 C
06.09.2012 05:51 12,1 C 78 % 1024,0 hPa 0,0 l/m 6,8 km/h (2 Bft) W-NW 292 8,4 C 12,1 C
06.09.2012 05:51 12,1 C 78 % 1024,0 hPa 0,0 l/m 6,8 km/h (2 Bft) W-NW 292 8,4 C 12,1 C
06.09.2012 05:56 11,9 C 78 % 1024,0 hPa 0,0 l/m 8,3 km/h (2 Bft) N-NW 337 8,2 C 11,9 C
06.09.2012 05:56 11,9 C 78 % 1024,0 hPa 0,0 l/m 8,3 km/h (2 Bft) N-NW 337 8,2 C 11,9 C
06.09.2012 06:01 11,9 C 78 % 1024,1 hPa 0,0 l/m 2,5 km/h (1 Bft) W-NW 292 8,2 C 11,9 C
06.09.2012 06:01 11,9 C 78 % 1024,1 hPa 0,0 l/m 2,5 km/h (1 Bft) W-NW 292 8,2 C 11,9 C
06.09.2012 06:06 11,8 C 79 % 1024,0 hPa 0,0 l/m 3,6 km/h (1 Bft) W 270 8,3 C 11,8 C
06.09.2012 06:06 11,8 C 79 % 1024,0 hPa 0,0 l/m 3,6 km/h (1 Bft) W 270 8,3 C 11,8 C
06.09.2012 06:11 11,7 C 79 % 1024,1 hPa 0,0 l/m 0,0 km/h (0 Bft) W-NW 292 8,2 C 11,7 C
06.09.2012 06:11 11,7 C 79 % 1024,1 hPa 0,0 l/m 0,0 km/h (0 Bft) W-NW 292 8,2 C 11,7 C
06.09.2012 06:16 11,6 C 79 % 1024,1 hPa 0,0 l/m 5,0 km/h (1 Bft) NW 315 8,1 C 11,6 C
06.09.2012 06:16 11,6 C 79 % 1024,1 hPa 0,0 l/m 5,0 km/h (1 Bft) NW 315 8,1 C 11,6 C
06.09.2012 06:21 11,6 C 79 % 1024,0 hPa 0,0 l/m 6,8 km/h (2 Bft) W-NW 292 8,1 C 11,6 C
06.09.2012 06:21 11,6 C 79 % 1024,0 hPa 0,0 l/m 6,8 km/h (2 Bft) W-NW 292 8,1 C 11,6 C
06.09.2012 06:26 11,5 C 80 % 1024,1 hPa 0,0 l/m 3,2 km/h (1 Bft) W-NW 292 8,2 C 11,5 C
06.09.2012 06:26 11,5 C 80 % 1024,1 hPa 0,0 l/m 3,2 km/h (1 Bft) W-NW 292 8,2 C 11,5 C
06.09.2012 06:31 11,4 C 80 % 1024,2 hPa 0,0 l/m 4,3 km/h (1 Bft) W-NW 292 8,1 C 11,4 C
06.09.2012 06:31 11,4 C 80 % 1024,2 hPa 0,0 l/m 4,3 km/h (1 Bft) W-NW 292 8,1 C 11,4 C
06.09.2012 06:36 11,3 C 80 % 1024,2 hPa 0,0 l/m 0,0 km/h (0 Bft) W 270 8,0 C 11,3 C
06.09.2012 06:36 11,3 C 80 % 1024,2 hPa 0,0 l/m 0,0 km/h (0 Bft) W 270 8,0 C 11,3 C
06.09.2012 06:41 11,3 C 81 % 1024,2 hPa 0,0 l/m 8,3 km/h (2 Bft) W 270 8,2 C 11,3 C
06.09.2012 06:41 11,3 C 81 % 1024,2 hPa 0,0 l/m 8,3 km/h (2 Bft) W 270 8,2 C 11,3 C
06.09.2012 06:46 11,3 C 81 % 1024,3 hPa 0,0 l/m 9,7 km/h (2 Bft) W-NW 292 8,2 C 11,3 C
06.09.2012 06:46 11,3 C 81 % 1024,3 hPa 0,0 l/m 9,7 km/h (2 Bft) W-NW 292 8,2 C 11,3 C
06.09.2012 06:51 11,2 C 81 % 1024,4 hPa 0,0 l/m 5,8 km/h (2 Bft) W-NW 292 8,1 C 11,2 C
06.09.2012 06:51 11,2 C 81 % 1024,4 hPa 0,0 l/m 5,8 km/h (2 Bft) W-NW 292 8,1 C 11,2 C
06.09.2012 06:56 11,2 C 81 % 1024,4 hPa 0,0 l/m 2,5 km/h (1 Bft) W-NW 292 8,1 C 11,2 C
06.09.2012 06:56 11,2 C 81 % 1024,4 hPa 0,0 l/m 2,5 km/h (1 Bft) W-NW 292 8,1 C 11,2 C
06.09.2012 07:01 11,1 C 81 % 1024,5 hPa 0,0 l/m 2,5 km/h (1 Bft) W-NW 292 8,0 C 11,1 C
06.09.2012 07:01 11,1 C 81 % 1024,5 hPa 0,0 l/m 2,5 km/h (1 Bft) W-NW 292 8,0 C 11,1 C
06.09.2012 07:06 11,2 C 82 % 1024,6 hPa 0,0 l/m 2,2 km/h (1 Bft) W-NW 292 8,2 C 11,2 C
06.09.2012 07:06 11,2 C 82 % 1024,6 hPa 0,0 l/m 2,2 km/h (1 Bft) W-NW 292 8,2 C 11,2 C
06.09.2012 07:11 11,3 C 82 % 1024,5 hPa 0,0 l/m 7,9 km/h (2 Bft) W-NW 292 8,3 C 11,3 C
06.09.2012 07:11 11,3 C 82 % 1024,5 hPa 0,0 l/m 7,9 km/h (2 Bft) W-NW 292 8,3 C 11,3 C
06.09.2012 07:16 11,4 C 82 % 1024,6 hPa 0,0 l/m 4,0 km/h (1 Bft) W-NW 292 8,4 C 11,4 C
06.09.2012 07:16 11,4 C 82 % 1024,6 hPa 0,0 l/m 4,0 km/h (1 Bft) W-NW 292 8,4 C 11,4 C
06.09.2012 07:21 11,6 C 82 % 1024,5 hPa 0,0 l/m 6,1 km/h (2 Bft) W-NW 292 8,6 C 11,6 C
06.09.2012 07:21 11,6 C 82 % 1024,5 hPa 0,0 l/m 6,1 km/h (2 Bft) W-NW 292 8,6 C 11,6 C
06.09.2012 07:26 11,8 C 81 % 1024,6 hPa 0,0 l/m 5,8 km/h (2 Bft) NW 315 8,6 C 11,8 C
06.09.2012 07:26 11,8 C 81 % 1024,6 hPa 0,0 l/m 5,8 km/h (2 Bft) NW 315 8,6 C 11,8 C
06.09.2012 07:31 11,9 C 80 % 1024,6 hPa 0,0 l/m 16,9 km/h (3 Bft) W 270 8,6 C 11,9 C
06.09.2012 07:31 11,9 C 80 % 1024,6 hPa 0,0 l/m 16,9 km/h (3 Bft) W 270 8,6 C 11,9 C
06.09.2012 07:36 12,1 C 80 % 1024,7 hPa 0,0 l/m 6,5 km/h (2 Bft) W 270 8,8 C 12,1 C
06.09.2012 07:36 12,1 C 80 % 1024,7 hPa 0,0 l/m 6,5 km/h (2 Bft) W 270 8,8 C 12,1 C
06.09.2012 07:41 12,1 C 80 % 1024,6 hPa 0,0 l/m 6,1 km/h (2 Bft) W 270 8,8 C 12,1 C
06.09.2012 07:41 12,1 C 80 % 1024,6 hPa 0,0 l/m 6,1 km/h (2 Bft) W 270 8,8 C 12,1 C
06.09.2012 07:46 12,2 C 80 % 1024,7 hPa 0,0 l/m 10,1 km/h (2 Bft) W-SW 247 8,9 C 12,2 C
06.09.2012 07:46 12,2 C 80 % 1024,7 hPa 0,0 l/m 10,1 km/h (2 Bft) W-SW 247 8,9 C 12,2 C
06.09.2012 07:51 12,3 C 79 % 1024,6 hPa 0,0 l/m 10,1 km/h (2 Bft) W-SW 247 8,8 C 12,3 C
06.09.2012 07:51 12,3 C 79 % 1024,6 hPa 0,0 l/m 10,1 km/h (2 Bft) W-SW 247 8,8 C 12,3 C
06.09.2012 07:56 12,4 C 79 % 1024,8 hPa 0,0 l/m 5,0 km/h (1 Bft) W 270 8,9 C 12,4 C
06.09.2012 07:56 12,4 C 79 % 1024,8 hPa 0,0 l/m 5,0 km/h (1 Bft) W 270 8,9 C 12,4 C
06.09.2012 08:01 12,5 C 78 % 1024,7 hPa 0,0 l/m 3,6 km/h (1 Bft) N-NW 337 8,8 C 12,5 C
06.09.2012 08:01 12,5 C 78 % 1024,7 hPa 0,0 l/m 3,6 km/h (1 Bft) N-NW 337 8,8 C 12,5 C
06.09.2012 08:06 12,7 C 77 % 1025,0 hPa 0,0 l/m 9,7 km/h (2 Bft) W-NW 292 8,8 C 12,7 C
06.09.2012 08:06 12,7 C 77 % 1025,0 hPa 0,0 l/m 9,7 km/h (2 Bft) W-NW 292 8,8 C 12,7 C
06.09.2012 08:11 12,8 C 77 % 1024,9 hPa 0,0 l/m 10,1 km/h (2 Bft) W-NW 292 8,9 C 12,8 C
06.09.2012 08:11 12,8 C 77 % 1024,9 hPa 0,0 l/m 10,1 km/h (2 Bft) W-NW 292 8,9 C 12,8 C
06.09.2012 08:16 12,9 C 76 % 1024,8 hPa 0,0 l/m 5,4 km/h (1 Bft) W 270 8,8 C 12,9 C
06.09.2012 08:16 12,9 C 76 % 1024,8 hPa 0,0 l/m 5,4 km/h (1 Bft) W 270 8,8 C 12,9 C
06.09.2012 08:21 12,9 C 75 % 1024,9 hPa 0,0 l/m 8,6 km/h (2 Bft) W 270 8,6 C 12,9 C
06.09.2012 08:21 12,9 C 75 % 1024,9 hPa 0,0 l/m 8,6 km/h (2 Bft) W 270 8,6 C 12,9 C
06.09.2012 08:26 13,1 C 74 % 1024,9 hPa 0,0 l/m 6,1 km/h (2 Bft) NW 315 8,6 C 13,1 C
06.09.2012 08:26 13,1 C 74 % 1024,9 hPa 0,0 l/m 6,1 km/h (2 Bft) NW 315 8,6 C 13,1 C
06.09.2012 08:31 13,2 C 73 % 1024,9 hPa 0,0 l/m 5,0 km/h (1 Bft) W-NW 292 8,5 C 13,2 C
06.09.2012 08:31 13,2 C 73 % 1024,9 hPa 0,0 l/m 5,0 km/h (1 Bft) W-NW 292 8,5 C 13,2 C
06.09.2012 08:36 13,3 C 72 % 1024,9 hPa 0,0 l/m 4,7 km/h (1 Bft) W-NW 292 8,4 C 13,3 C
06.09.2012 08:36 13,3 C 72 % 1024,9 hPa 0,0 l/m 4,7 km/h (1 Bft) W-NW 292 8,4 C 13,3 C
06.09.2012 08:41 13,5 C 71 % 1025,0 hPa 0,0 l/m 3,2 km/h (1 Bft) W-NW 292 8,3 C 13,5 C
06.09.2012 08:41 13,5 C 71 % 1025,0 hPa 0,0 l/m 3,2 km/h (1 Bft) W-NW 292 8,3 C 13,5 C
06.09.2012 08:46 13,7 C 70 % 1025,0 hPa 0,0 l/m 10,4 km/h (2 Bft) W-NW 292 8,3 C 13,7 C
06.09.2012 08:46 13,7 C 70 % 1025,0 hPa 0,0 l/m 10,4 km/h (2 Bft) W-NW 292 8,3 C 13,7 C
06.09.2012 08:51 13,8 C 70 % 1025,0 hPa 0,0 l/m 9,7 km/h (2 Bft) N-NW 337 8,4 C 13,8 C
06.09.2012 08:51 13,8 C 70 % 1025,0 hPa 0,0 l/m 9,7 km/h (2 Bft) N-NW 337 8,4 C 13,8 C
06.09.2012 08:56 14,0 C 69 % 1025,1 hPa 0,0 l/m 9,4 km/h (2 Bft) N-NW 337 8,4 C 14,0 C
06.09.2012 08:56 14,0 C 69 % 1025,1 hPa 0,0 l/m 9,4 km/h (2 Bft) N-NW 337 8,4 C 14,0 C
06.09.2012 09:01 14,1 C 67 % 1025,1 hPa 0,0 l/m 6,1 km/h (2 Bft) N-NW 337 8,1 C 14,1 C
06.09.2012 09:01 14,1 C 67 % 1025,1 hPa 0,0 l/m 6,1 km/h (2 Bft) N-NW 337 8,1 C 14,1 C
06.09.2012 09:06 14,2 C 67 % 1025,3 hPa 0,0 l/m 7,6 km/h (2 Bft) N-NO 22 8,2 C 14,2 C
06.09.2012 09:06 14,2 C 67 % 1025,3 hPa 0,0 l/m 7,6 km/h (2 Bft) N-NO 22 8,2 C 14,2 C
06.09.2012 09:11 14,3 C 66 % 1025,3 hPa 0,0 l/m 7,6 km/h (2 Bft) N-NW 337 8,0 C 14,3 C
06.09.2012 09:11 14,3 C 66 % 1025,3 hPa 0,0 l/m 7,6 km/h (2 Bft) N-NW 337 8,0 C 14,3 C
06.09.2012 09:16 14,4 C 65 % 1025,2 hPa 0,0 l/m 3,2 km/h (1 Bft) N-NW 337 7,9 C 14,4 C
06.09.2012 09:16 14,4 C 65 % 1025,2 hPa 0,0 l/m 3,2 km/h (1 Bft) N-NW 337 7,9 C 14,4 C
06.09.2012 09:21 14,6 C 65 % 1025,4 hPa 0,0 l/m 8,3 km/h (2 Bft) NW 315 8,1 C 14,6 C
06.09.2012 09:21 14,6 C 65 % 1025,4 hPa 0,0 l/m 8,3 km/h (2 Bft) NW 315 8,1 C 14,6 C
06.09.2012 09:26 14,7 C 64 % 1025,4 hPa 0,0 l/m 6,8 km/h (2 Bft) N 360 8,0 C 14,7 C
06.09.2012 09:26 14,7 C 64 % 1025,4 hPa 0,0 l/m 6,8 km/h (2 Bft) N 360 8,0 C 14,7 C
06.09.2012 09:31 14,8 C 64 % 1025,4 hPa 0,0 l/m 8,6 km/h (2 Bft) NO 45 8,1 C 14,8 C
06.09.2012 09:31 14,8 C 64 % 1025,4 hPa 0,0 l/m 8,6 km/h (2 Bft) NO 45 8,1 C 14,8 C
06.09.2012 09:36 14,9 C 63 % 1025,5 hPa 0,0 l/m 6,8 km/h (2 Bft) O 90 7,9 C 14,9 C
06.09.2012 09:36 14,9 C 63 % 1025,5 hPa 0,0 l/m 6,8 km/h (2 Bft) O 90 7,9 C 14,9 C
06.09.2012 09:41 14,9 C 62 % 1025,5 hPa 0,0 l/m 14,8 km/h (3 Bft) NO 45 7,7 C 14,9 C
06.09.2012 09:41 14,9 C 62 % 1025,5 hPa 0,0 l/m 14,8 km/h (3 Bft) NO 45 7,7 C 14,9 C
06.09.2012 09:46 14,9 C 62 % 1025,5 hPa 0,0 l/m 12,2 km/h (2 Bft) O-NO 67 7,7 C 14,9 C
06.09.2012 09:46 14,9 C 62 % 1025,5 hPa 0,0 l/m 12,2 km/h (2 Bft) O-NO 67 7,7 C 14,9 C
06.09.2012 09:51 14,9 C 61 % 1025,5 hPa 0,0 l/m 29,2 km/h (5 Bft) N 360 7,4 C 14,9 C
06.09.2012 09:51 14,9 C 61 % 1025,5 hPa 0,0 l/m 29,2 km/h (5 Bft) N 360 7,4 C 14,9 C
06.09.2012 09:56 14,9 C 61 % 1025,6 hPa 0,0 l/m 10,8 km/h (2 Bft) NO 45 7,4 C 14,9 C
06.09.2012 09:56 14,9 C 61 % 1025,6 hPa 0,0 l/m 10,8 km/h (2 Bft) NO 45 7,4 C 14,9 C
06.09.2012 10:01 14,9 C 61 % 1025,6 hPa 0,0 l/m 13,3 km/h (3 Bft) NW 315 7,4 C 14,9 C
06.09.2012 10:01 14,9 C 61 % 1025,6 hPa 0,0 l/m 13,3 km/h (3 Bft) NW 315 7,4 C 14,9 C
06.09.2012 10:06 15,1 C 60 % 1025,6 hPa 0,0 l/m 4,0 km/h (1 Bft) NW 315 7,4 C 15,1 C
06.09.2012 10:06 15,1 C 60 % 1025,6 hPa 0,0 l/m 4,0 km/h (1 Bft) NW 315 7,4 C 15,1 C
06.09.2012 10:11 15,1 C 60 % 1025,8 hPa 0,0 l/m 17,3 km/h (3 Bft) N-NO 22 7,4 C 15,1 C
06.09.2012 10:11 15,1 C 60 % 1025,8 hPa 0,0 l/m 17,3 km/h (3 Bft) N-NO 22 7,4 C 15,1 C
06.09.2012 10:16 15,2 C 60 % 1025,8 hPa 0,0 l/m 16,2 km/h (3 Bft) N 360 7,5 C 15,2 C
06.09.2012 10:16 15,2 C 60 % 1025,8 hPa 0,0 l/m 16,2 km/h (3 Bft) N 360 7,5 C 15,2 C
06.09.2012 10:21 15,3 C 61 % 1026,1 hPa 0,0 l/m 6,8 km/h (2 Bft) NW 315 7,8 C 15,3 C
06.09.2012 10:21 15,3 C 61 % 1026,1 hPa 0,0 l/m 6,8 km/h (2 Bft) NW 315 7,8 C 15,3 C
06.09.2012 10:26 15,5 C 59 % 1026,1 hPa 0,0 l/m 5,0 km/h (1 Bft) N-NO 22 7,5 C 15,5 C
06.09.2012 10:26 15,5 C 59 % 1026,1 hPa 0,0 l/m 5,0 km/h (1 Bft) N-NO 22 7,5 C 15,5 C
06.09.2012 10:31 15,4 C 59 % 1026,1 hPa 0,0 l/m 17,3 km/h (3 Bft) N-NW 337 7,4 C 15,4 C
06.09.2012 10:31 15,4 C 59 % 1026,1 hPa 0,0 l/m 17,3 km/h (3 Bft) N-NW 337 7,4 C 15,4 C
06.09.2012 10:36 15,4 C 59 % 1026,2 hPa 0,0 l/m 25,6 km/h (4 Bft) N 360 7,4 C 15,4 C
06.09.2012 10:36 15,4 C 59 % 1026,2 hPa 0,0 l/m 25,6 km/h (4 Bft) N 360 7,4 C 15,4 C
06.09.2012 10:41 15,5 C 59 % 1026,2 hPa 0,0 l/m 8,3 km/h (2 Bft) N-NO 22 7,5 C 15,5 C
06.09.2012 10:41 15,5 C 59 % 1026,2 hPa 0,0 l/m 8,3 km/h (2 Bft) N-NO 22 7,5 C 15,5 C
06.09.2012 10:46 15,8 C 59 % 1026,2 hPa 0,0 l/m 13,7 km/h (3 Bft) N-NW 337 7,8 C 15,8 C
06.09.2012 10:46 15,8 C 59 % 1026,2 hPa 0,0 l/m 13,7 km/h (3 Bft) N-NW 337 7,8 C 15,8 C
06.09.2012 10:51 16,0 C 58 % 1026,1 hPa 0,0 l/m 5,0 km/h (1 Bft) N-NW 337 7,7 C 16,0 C
06.09.2012 10:51 16,0 C 58 % 1026,1 hPa 0,0 l/m 5,0 km/h (1 Bft) N-NW 337 7,7 C 16,0 C
06.09.2012 10:56 16,1 C 57 % 1026,2 hPa 0,0 l/m 6,8 km/h (2 Bft) NO 45 7,6 C 16,1 C
06.09.2012 10:56 16,1 C 57 % 1026,2 hPa 0,0 l/m 6,8 km/h (2 Bft) NO 45 7,6 C 16,1 C
06.09.2012 11:01 16,4 C 58 % 1026,0 hPa 0,0 l/m 16,6 km/h (3 Bft) N 360 8,1 C 16,4 C
06.09.2012 11:01 16,4 C 58 % 1026,0 hPa 0,0 l/m 16,6 km/h (3 Bft) N 360 8,1 C 16,4 C
06.09.2012 11:06 16,8 C 56 % 1026,2 hPa 0,0 l/m 8,6 km/h (2 Bft) N 360 8,0 C 16,8 C
06.09.2012 11:06 16,8 C 56 % 1026,2 hPa 0,0 l/m 8,6 km/h (2 Bft) N 360 8,0 C 16,8 C
06.09.2012 11:11 16,9 C 54 % 1026,1 hPa 0,0 l/m 11,9 km/h (2 Bft) N-NW 337 7,5 C 16,9 C
06.09.2012 11:11 16,9 C 54 % 1026,1 hPa 0,0 l/m 11,9 km/h (2 Bft) N-NW 337 7,5 C 16,9 C
06.09.2012 11:16 17,1 C 55 % 1026,1 hPa 0,0 l/m 5,0 km/h (1 Bft) O-NO 67 8,0 C 17,1 C
06.09.2012 11:16 17,1 C 55 % 1026,1 hPa 0,0 l/m 5,0 km/h (1 Bft) O-NO 67 8,0 C 17,1 C
06.09.2012 11:21 17,0 C 53 % 1025,9 hPa 0,0 l/m 10,1 km/h (2 Bft) N-NW 337 7,4 C 17,0 C
06.09.2012 11:21 17,0 C 53 % 1025,9 hPa 0,0 l/m 10,1 km/h (2 Bft) N-NW 337 7,4 C 17,0 C
06.09.2012 11:26 16,7 C 53 % 1026,0 hPa 0,0 l/m 8,3 km/h (2 Bft) NW 315 7,1 C 16,7 C
06.09.2012 11:31 16,8 C 53 % 1025,9 hPa 0,0 l/m 9,7 km/h (2 Bft) N 360 7,2 C 16,8 C
06.09.2012 11:31 16,8 C 53 % 1025,9 hPa 0,0 l/m 9,7 km/h (2 Bft) N 360 7,2 C 16,8 C
06.09.2012 11:36 16,9 C 53 % 1025,9 hPa 0,0 l/m 7,2 km/h (2 Bft) O-NO 67 7,3 C 16,9 C
06.09.2012 11:36 16,9 C 53 % 1025,9 hPa 0,0 l/m 7,2 km/h (2 Bft) O-NO 67 7,3 C 16,9 C
06.09.2012 11:41 17,1 C 52 % 1026,0 hPa 0,0 l/m 6,8 km/h (2 Bft) NO 45 7,2 C 17,1 C
06.09.2012 11:41 17,1 C 52 % 1026,0 hPa 0,0 l/m 6,8 km/h (2 Bft) NO 45 7,2 C 17,1 C
06.09.2012 11:46 17,3 C 52 % 1026,2 hPa 0,0 l/m 16,6 km/h (3 Bft) N 360 7,3 C 17,3 C
06.09.2012 11:46 17,3 C 52 % 1026,2 hPa 0,0 l/m 16,6 km/h (3 Bft) N 360 7,3 C 17,3 C
06.09.2012 11:51 17,6 C 51 % 1026,1 hPa 0,0 l/m 16,6 km/h (3 Bft) NW 315 7,3 C 17,6 C
06.09.2012 11:51 17,6 C 51 % 1026,1 hPa 0,0 l/m 16,6 km/h (3 Bft) NW 315 7,3 C 17,6 C
06.09.2012 11:56 17,8 C 50 % 1026,1 hPa 0,0 l/m 12,2 km/h (2 Bft) W-NW 292 7,2 C 17,8 C
06.09.2012 11:56 17,8 C 50 % 1026,1 hPa 0,0 l/m 12,2 km/h (2 Bft) W-NW 292 7,2 C 17,8 C
06.09.2012 12:01 17,5 C 50 % 1026,2 hPa 0,0 l/m 10,8 km/h (2 Bft) NW 315 7,0 C 17,5 C
06.09.2012 12:01 17,5 C 50 % 1026,2 hPa 0,0 l/m 10,8 km/h (2 Bft) NW 315 7,0 C 17,5 C
06.09.2012 12:06 16,9 C 50 % 1026,1 hPa 0,0 l/m 6,8 km/h (2 Bft) N-NO 22 6,4 C 16,9 C
06.09.2012 12:06 16,9 C 50 % 1026,1 hPa 0,0 l/m 6,8 km/h (2 Bft) N-NO 22 6,4 C 16,9 C
06.09.2012 12:11 16,8 C 51 % 1026,2 hPa 0,0 l/m 7,6 km/h (2 Bft) W-NW 292 6,6 C 16,8 C
06.09.2012 12:11 16,8 C 51 % 1026,2 hPa 0,0 l/m 7,6 km/h (2 Bft) W-NW 292 6,6 C 16,8 C
06.09.2012 12:16 17,2 C 51 % 1026,1 hPa 0,0 l/m 14,0 km/h (3 Bft) N-NW 337 7,0 C 17,2 C
06.09.2012 12:16 17,2 C 51 % 1026,1 hPa 0,0 l/m 14,0 km/h (3 Bft) N-NW 337 7,0 C 17,2 C
06.09.2012 12:21 17,3 C 50 % 1026,2 hPa 0,0 l/m 10,8 km/h (2 Bft) NO 45 6,8 C 17,3 C
06.09.2012 12:21 17,3 C 50 % 1026,2 hPa 0,0 l/m 10,8 km/h (2 Bft) NO 45 6,8 C 17,3 C
06.09.2012 12:26 16,8 C 50 % 1026,1 hPa 0,0 l/m 7,6 km/h (2 Bft) N-NO 22 6,3 C 16,8 C
06.09.2012 12:26 16,8 C 50 % 1026,1 hPa 0,0 l/m 7,6 km/h (2 Bft) N-NO 22 6,3 C 16,8 C
06.09.2012 12:31 16,7 C 52 % 1026,2 hPa 0,0 l/m 7,9 km/h (2 Bft) NW 315 6,8 C 16,7 C
06.09.2012 12:31 16,7 C 52 % 1026,2 hPa 0,0 l/m 7,9 km/h (2 Bft) NW 315 6,8 C 16,7 C
06.09.2012 12:36 16,7 C 51 % 1026,1 hPa 0,0 l/m 12,2 km/h (2 Bft) N-NO 22 6,5 C 16,7 C
06.09.2012 12:36 16,7 C 51 % 1026,1 hPa 0,0 l/m 12,2 km/h (2 Bft) N-NO 22 6,5 C 16,7 C
06.09.2012 12:41 17,0 C 52 % 1025,9 hPa 0,0 l/m 15,5 km/h (3 Bft) N 360 7,1 C 17,0 C
06.09.2012 12:41 17,0 C 52 % 1025,9 hPa 0,0 l/m 15,5 km/h (3 Bft) N 360 7,1 C 17,0 C
06.09.2012 12:46 17,8 C 50 % 1026,0 hPa 0,0 l/m 12,2 km/h (2 Bft) NW 315 7,2 C 17,8 C
06.09.2012 12:46 17,8 C 50 % 1026,0 hPa 0,0 l/m 12,2 km/h (2 Bft) NW 315 7,2 C 17,8 C
06.09.2012 12:51 18,3 C 49 % 1026,1 hPa 0,0 l/m 9,4 km/h (2 Bft) W-NW 292 7,4 C 18,3 C
06.09.2012 12:51 18,3 C 49 % 1026,1 hPa 0,0 l/m 9,4 km/h (2 Bft) W-NW 292 7,4 C 18,3 C
06.09.2012 12:56 18,6 C 48 % 1025,9 hPa 0,0 l/m 20,9 km/h (4 Bft) W 270 7,4 C 18,6 C
06.09.2012 12:56 18,6 C 48 % 1025,9 hPa 0,0 l/m 20,9 km/h (4 Bft) W 270 7,4 C 18,6 C
06.09.2012 13:01 18,2 C 48 % 1026,1 hPa 0,0 l/m 5,4 km/h (1 Bft) W 270 7,0 C 18,2 C
06.09.2012 13:01 18,2 C 48 % 1026,1 hPa 0,0 l/m 5,4 km/h (1 Bft) W 270 7,0 C 18,2 C
06.09.2012 13:06 18,2 C 48 % 1026,1 hPa 0,0 l/m 19,4 km/h (3 Bft) NW 315 7,0 C 18,2 C
06.09.2012 13:06 18,2 C 48 % 1026,1 hPa 0,0 l/m 19,4 km/h (3 Bft) NW 315 7,0 C 18,2 C
06.09.2012 13:11 18,1 C 49 % 1026,1 hPa 0,0 l/m 9,0 km/h (2 Bft) N-NW 337 7,2 C 18,1 C
06.09.2012 13:11 18,1 C 49 % 1026,1 hPa 0,0 l/m 9,0 km/h (2 Bft) N-NW 337 7,2 C 18,1 C
06.09.2012 13:16 18,1 C 49 % 1026,2 hPa 0,0 l/m 10,8 km/h (2 Bft) N-NO 22 7,2 C 18,1 C
06.09.2012 13:16 18,1 C 49 % 1026,2 hPa 0,0 l/m 10,8 km/h (2 Bft) N-NO 22 7,2 C 18,1 C
06.09.2012 13:21 17,8 C 49 % 1026,2 hPa 0,0 l/m 4,3 km/h (1 Bft) NO 45 6,9 C 17,8 C
06.09.2012 13:21 17,8 C 49 % 1026,2 hPa 0,0 l/m 4,3 km/h (1 Bft) NO 45 6,9 C 17,8 C
06.09.2012 13:26 17,6 C 50 % 1026,2 hPa 0,0 l/m 2,5 km/h (1 Bft) N-NW 337 7,1 C 17,6 C
06.09.2012 13:26 17,6 C 50 % 1026,2 hPa 0,0 l/m 2,5 km/h (1 Bft) N-NW 337 7,1 C 17,6 C
06.09.2012 13:31 17,5 C 50 % 1026,0 hPa 0,0 l/m 7,6 km/h (2 Bft) NW 315 7,0 C 17,5 C
06.09.2012 13:31 17,5 C 50 % 1026,0 hPa 0,0 l/m 7,6 km/h (2 Bft) NW 315 7,0 C 17,5 C
06.09.2012 13:36 17,6 C 49 % 1026,2 hPa 0,0 l/m 5,4 km/h (1 Bft) W-NW 292 6,8 C 17,6 C
06.09.2012 13:36 17,6 C 49 % 1026,2 hPa 0,0 l/m 5,4 km/h (1 Bft) W-NW 292 6,8 C 17,6 C
06.09.2012 13:41 18,2 C 48 % 1026,2 hPa 0,0 l/m 15,5 km/h (3 Bft) N-NW 337 7,0 C 18,2 C
06.09.2012 13:41 18,2 C 48 % 1026,2 hPa 0,0 l/m 15,5 km/h (3 Bft) N-NW 337 7,0 C 18,2 C
06.09.2012 13:46 18,4 C 47 % 1026,2 hPa 0,0 l/m 9,4 km/h (2 Bft) N 360 6,9 C 18,4 C
06.09.2012 13:46 18,4 C 47 % 1026,2 hPa 0,0 l/m 9,4 km/h (2 Bft) N 360 6,9 C 18,4 C
06.09.2012 13:51 18,5 C 46 % 1026,2 hPa 0,0 l/m 5,0 km/h (1 Bft) N 360 6,7 C 18,5 C
06.09.2012 13:51 18,5 C 46 % 1026,2 hPa 0,0 l/m 5,0 km/h (1 Bft) N 360 6,7 C 18,5 C
06.09.2012 13:56 18,7 C 47 % 1026,2 hPa 0,0 l/m 7,6 km/h (2 Bft) NW 315 7,2 C 18,7 C
06.09.2012 13:56 18,7 C 47 % 1026,2 hPa 0,0 l/m 7,6 km/h (2 Bft) NW 315 7,2 C 18,7 C
06.09.2012 14:01 19,0 C 48 % 1026,1 hPa 0,0 l/m 10,8 km/h (2 Bft) W 270 7,7 C 19,0 C
06.09.2012 14:01 19,0 C 48 % 1026,1 hPa 0,0 l/m 10,8 km/h (2 Bft) W 270 7,7 C 19,0 C
06.09.2012 14:06 19,4 C 46 % 1026,1 hPa 0,0 l/m 11,2 km/h (2 Bft) W-NW 292 7,5 C 19,4 C
06.09.2012 14:06 19,4 C 46 % 1026,1 hPa 0,0 l/m 11,2 km/h (2 Bft) W-NW 292 7,5 C 19,4 C
06.09.2012 14:11 19,6 C 45 % 1026,0 hPa 0,0 l/m 7,9 km/h (2 Bft) NW 315 7,3 C 19,6 C
06.09.2012 14:11 19,6 C 45 % 1026,0 hPa 0,0 l/m 7,9 km/h (2 Bft) NW 315 7,3 C 19,6 C
06.09.2012 14:16 19,8 C 44 % 1025,9 hPa 0,0 l/m 4,3 km/h (1 Bft) W-NW 292 7,2 C 19,8 C
06.09.2012 14:16 19,8 C 44 % 1025,9 hPa 0,0 l/m 4,3 km/h (1 Bft) W-NW 292 7,2 C 19,8 C
06.09.2012 14:21 19,9 C 43 % 1025,9 hPa 0,0 l/m 8,3 km/h (2 Bft) W 270 6,9 C 19,9 C
06.09.2012 14:21 19,9 C 43 % 1025,9 hPa 0,0 l/m 8,3 km/h (2 Bft) W 270 6,9 C 19,9 C
06.09.2012 14:26 19,9 C 44 % 1026,0 hPa 0,0 l/m 6,1 km/h (2 Bft) W 270 7,3 C 19,9 C
06.09.2012 14:26 19,9 C 44 % 1026,0 hPa 0,0 l/m 6,1 km/h (2 Bft) W 270 7,3 C 19,9 C
06.09.2012 14:31 19,6 C 44 % 1025,8 hPa 0,0 l/m 10,1 km/h (2 Bft) W-NW 292 7,0 C 19,6 C
06.09.2012 14:31 19,6 C 44 % 1025,8 hPa 0,0 l/m 10,1 km/h (2 Bft) W-NW 292 7,0 C 19,6 C
06.09.2012 14:36 19,6 C 45 % 1025,9 hPa 0,0 l/m 9,0 km/h (2 Bft) W-NW 292 7,3 C 19,6 C
06.09.2012 14:36 19,6 C 45 % 1025,9 hPa 0,0 l/m 9,0 km/h (2 Bft) W-NW 292 7,3 C 19,6 C
06.09.2012 14:41 19,8 C 44 % 1025,9 hPa 0,0 l/m 14,8 km/h (3 Bft) NW 315 7,2 C 19,8 C
06.09.2012 14:41 19,8 C 44 % 1025,9 hPa 0,0 l/m 14,8 km/h (3 Bft) NW 315 7,2 C 19,8 C
06.09.2012 14:46 19,5 C 45 % 1026,0 hPa 0,0 l/m 15,1 km/h (3 Bft) W-NW 292 7,2 C 19,5 C
06.09.2012 14:46 19,5 C 45 % 1026,0 hPa 0,0 l/m 15,1 km/h (3 Bft) W-NW 292 7,2 C 19,5 C
06.09.2012 14:51 19,3 C 45 % 1025,9 hPa 0,0 l/m 16,9 km/h (3 Bft) N-NW 337 7,1 C 19,3 C
06.09.2012 14:51 19,3 C 45 % 1025,9 hPa 0,0 l/m 16,9 km/h (3 Bft) N-NW 337 7,1 C 19,3 C
06.09.2012 14:56 19,3 C 45 % 1025,9 hPa 0,0 l/m 4,0 km/h (1 Bft) W-NW 292 7,1 C 19,3 C
06.09.2012 14:56 19,3 C 45 % 1025,9 hPa 0,0 l/m 4,0 km/h (1 Bft) W-NW 292 7,1 C 19,3 C
06.09.2012 15:01 19,4 C 45 % 1025,8 hPa 0,0 l/m 8,3 km/h (2 Bft) N-NW 337 7,2 C 19,4 C
06.09.2012 15:01 19,4 C 45 % 1025,8 hPa 0,0 l/m 8,3 km/h (2 Bft) N-NW 337 7,2 C 19,4 C
06.09.2012 15:06 19,5 C 45 % 1025,8 hPa 0,0 l/m 9,0 km/h (2 Bft) W-NW 292 7,2 C 19,5 C
06.09.2012 15:06 19,5 C 45 % 1025,8 hPa 0,0 l/m 9,0 km/h (2 Bft) W-NW 292 7,2 C 19,5 C
06.09.2012 15:11 19,5 C 44 % 1025,7 hPa 0,0 l/m 4,3 km/h (1 Bft) NO 45 6,9 C 19,5 C
06.09.2012 15:11 19,5 C 44 % 1025,7 hPa 0,0 l/m 4,3 km/h (1 Bft) NO 45 6,9 C 19,5 C
06.09.2012 15:16 19,5 C 45 % 1025,8 hPa 0,0 l/m 5,0 km/h (1 Bft) W 270 7,2 C 19,5 C
06.09.2012 15:16 19,5 C 45 % 1025,8 hPa 0,0 l/m 5,0 km/h (1 Bft) W 270 7,2 C 19,5 C
06.09.2012 15:21 19,5 C 45 % 1025,8 hPa 0,0 l/m 5,4 km/h (1 Bft) W-NW 292 7,2 C 19,5 C
06.09.2012 15:21 19,5 C 45 % 1025,8 hPa 0,0 l/m 5,4 km/h (1 Bft) W-NW 292 7,2 C 19,5 C
06.09.2012 15:26 19,1 C 45 % 1025,7 hPa 0,0 l/m 4,7 km/h (1 Bft) W 270 6,9 C 19,1 C
06.09.2012 15:26 19,1 C 45 % 1025,7 hPa 0,0 l/m 4,7 km/h (1 Bft) W 270 6,9 C 19,1 C
06.09.2012 15:31 18,9 C 46 % 1025,7 hPa 0,0 l/m 14,4 km/h (3 Bft) NW 315 7,0 C 18,9 C
06.09.2012 15:31 18,9 C 46 % 1025,7 hPa 0,0 l/m 14,4 km/h (3 Bft) NW 315 7,0 C 18,9 C
06.09.2012 15:36 18,9 C 46 % 1025,8 hPa 0,0 l/m 4,7 km/h (1 Bft) W-NW 292 7,0 C 18,9 C
06.09.2012 15:36 18,9 C 46 % 1025,8 hPa 0,0 l/m 4,7 km/h (1 Bft) W-NW 292 7,0 C 18,9 C
06.09.2012 15:41 18,8 C 46 % 1025,7 hPa 0,0 l/m 12,2 km/h (2 Bft) W-NW 292 6,9 C 18,8 C
06.09.2012 15:41 18,8 C 46 % 1025,7 hPa 0,0 l/m 12,2 km/h (2 Bft) W-NW 292 6,9 C 18,8 C
06.09.2012 15:46 19,1 C 46 % 1025,6 hPa 0,0 l/m 5,0 km/h (1 Bft) NW 315 7,2 C 19,1 C
06.09.2012 15:46 19,1 C 46 % 1025,6 hPa 0,0 l/m 5,0 km/h (1 Bft) NW 315 7,2 C 19,1 C
06.09.2012 15:51 19,3 C 45 % 1025,7 hPa 0,0 l/m 14,8 km/h (3 Bft) NW 315 7,1 C 19,3 C
06.09.2012 15:51 19,3 C 45 % 1025,7 hPa 0,0 l/m 14,8 km/h (3 Bft) NW 315 7,1 C 19,3 C
06.09.2012 15:56 19,4 C 45 % 1025,6 hPa 0,0 l/m 7,2 km/h (2 Bft) W-NW 292 7,2 C 19,4 C
06.09.2012 15:56 19,4 C 45 % 1025,6 hPa 0,0 l/m 7,2 km/h (2 Bft) W-NW 292 7,2 C 19,4 C
06.09.2012 16:01 19,3 C 45 % 1025,5 hPa 0,0 l/m 10,4 km/h (2 Bft) W-NW 292 7,1 C 19,3 C
06.09.2012 16:01 19,3 C 45 % 1025,5 hPa 0,0 l/m 10,4 km/h (2 Bft) W-NW 292 7,1 C 19,3 C
06.09.2012 16:06 19,3 C 45 % 1025,5 hPa 0,0 l/m 4,3 km/h (1 Bft) W 270 7,1 C 19,3 C
06.09.2012 16:06 19,3 C 45 % 1025,5 hPa 0,0 l/m 4,3 km/h (1 Bft) W 270 7,1 C 19,3 C
06.09.2012 16:11 19,2 C 46 % 1025,4 hPa 0,0 l/m 7,9 km/h (2 Bft) W-NW 292 7,3 C 19,2 C
06.09.2012 16:11 19,2 C 46 % 1025,4 hPa 0,0 l/m 7,9 km/h (2 Bft) W-NW 292 7,3 C 19,2 C
06.09.2012 16:16 19,1 C 45 % 1025,4 hPa 0,0 l/m 18,7 km/h (3 Bft) W-NW 292 6,9 C 19,1 C
06.09.2012 16:16 19,1 C 45 % 1025,4 hPa 0,0 l/m 18,7 km/h (3 Bft) W-NW 292 6,9 C 19,1 C
06.09.2012 16:21 18,9 C 46 % 1025,4 hPa 0,0 l/m 13,0 km/h (3 Bft) W-NW 292 7,0 C 18,9 C
06.09.2012 16:21 18,9 C 46 % 1025,4 hPa 0,0 l/m 13,0 km/h (3 Bft) W-NW 292 7,0 C 18,9 C
06.09.2012 16:26 18,9 C 46 % 1025,5 hPa 0,0 l/m 10,1 km/h (2 Bft) NW 315 7,0 C 18,9 C
06.09.2012 16:26 18,9 C 46 % 1025,5 hPa 0,0 l/m 10,1 km/h (2 Bft) NW 315 7,0 C 18,9 C
06.09.2012 16:31 18,8 C 46 % 1025,4 hPa 0,0 l/m 6,8 km/h (2 Bft) W-NW 292 6,9 C 18,8 C
06.09.2012 16:31 18,8 C 46 % 1025,4 hPa 0,0 l/m 6,8 km/h (2 Bft) W-NW 292 6,9 C 18,8 C
06.09.2012 16:36 18,8 C 47 % 1025,4 hPa 0,0 l/m 4,7 km/h (1 Bft) NW 315 7,2 C 18,8 C
06.09.2012 16:36 18,8 C 47 % 1025,4 hPa 0,0 l/m 4,7 km/h (1 Bft) NW 315 7,2 C 18,8 C
06.09.2012 16:41 18,9 C 47 % 1025,3 hPa 0,0 l/m 2,5 km/h (1 Bft) W-NW 292 7,3 C 18,9 C
06.09.2012 16:41 18,9 C 47 % 1025,3 hPa 0,0 l/m 2,5 km/h (1 Bft) W-NW 292 7,3 C 18,9 C
06.09.2012 16:46 19,2 C 47 % 1025,3 hPa 0,0 l/m 3,6 km/h (1 Bft) W 270 7,6 C 19,2 C
06.09.2012 16:46 19,2 C 47 % 1025,3 hPa 0,0 l/m 3,6 km/h (1 Bft) W 270 7,6 C 19,2 C
06.09.2012 16:51 19,5 C 46 % 1025,2 hPa 0,0 l/m 6,8 km/h (2 Bft) W-NW 292 7,6 C 19,5 C
06.09.2012 16:51 19,5 C 46 % 1025,2 hPa 0,0 l/m 6,8 km/h (2 Bft) W-NW 292 7,6 C 19,5 C
06.09.2012 16:56 19,6 C 45 % 1025,3 hPa 0,0 l/m 10,4 km/h (2 Bft) SW 225 7,3 C 19,6 C
06.09.2012 16:56 19,6 C 45 % 1025,3 hPa 0,0 l/m 10,4 km/h (2 Bft) SW 225 7,3 C 19,6 C
06.09.2012 17:01 19,8 C 45 % 1025,3 hPa 0,0 l/m 6,8 km/h (2 Bft) W-SW 247 7,5 C 19,8 C
06.09.2012 17:01 19,8 C 45 % 1025,3 hPa 0,0 l/m 6,8 km/h (2 Bft) W-SW 247 7,5 C 19,8 C
06.09.2012 17:06 19,9 C 44 % 1025,2 hPa 0,0 l/m 15,1 km/h (3 Bft) W-NW 292 7,3 C 19,9 C
06.09.2012 17:06 19,9 C 44 % 1025,2 hPa 0,0 l/m 15,1 km/h (3 Bft) W-NW 292 7,3 C 19,9 C
06.09.2012 17:11 19,8 C 44 % 1025,2 hPa 0,0 l/m 6,5 km/h (2 Bft) NW 315 7,2 C 19,8 C
06.09.2012 17:11 19,8 C 44 % 1025,2 hPa 0,0 l/m 6,5 km/h (2 Bft) NW 315 7,2 C 19,8 C
06.09.2012 17:16 19,7 C 44 % 1025,1 hPa 0,0 l/m 12,6 km/h (3 Bft) W 270 7,1 C 19,7 C
06.09.2012 17:16 19,7 C 44 % 1025,1 hPa 0,0 l/m 12,6 km/h (3 Bft) W 270 7,1 C 19,7 C
06.09.2012 17:21 19,6 C 44 % 1025,1 hPa 0,0 l/m 9,4 km/h (2 Bft) NW 315 7,0 C 19,6 C
06.09.2012 17:21 19,6 C 44 % 1025,1 hPa 0,0 l/m 9,4 km/h (2 Bft) NW 315 7,0 C 19,6 C
06.09.2012 17:26 19,5 C 45 % 1025,0 hPa 0,0 l/m 13,0 km/h (3 Bft) NW 315 7,2 C 19,5 C
06.09.2012 17:26 19,5 C 45 % 1025,0 hPa 0,0 l/m 13,0 km/h (3 Bft) NW 315 7,2 C 19,5 C
06.09.2012 17:31 19,4 C 45 % 1025,0 hPa 0,0 l/m 14,8 km/h (3 Bft) W 270 7,2 C 19,4 C
06.09.2012 17:31 19,4 C 45 % 1025,0 hPa 0,0 l/m 14,8 km/h (3 Bft) W 270 7,2 C 19,4 C
06.09.2012 17:36 19,2 C 45 % 1025,0 hPa 0,0 l/m 11,2 km/h (2 Bft) W-NW 292 7,0 C 19,2 C
06.09.2012 17:36 19,2 C 45 % 1025,0 hPa 0,0 l/m 11,2 km/h (2 Bft) W-NW 292 7,0 C 19,2 C
06.09.2012 17:41 19,0 C 46 % 1025,0 hPa 0,0 l/m 5,0 km/h (1 Bft) W-NW 292 7,1 C 19,0 C
06.09.2012 17:41 19,0 C 46 % 1025,0 hPa 0,0 l/m 5,0 km/h (1 Bft) W-NW 292 7,1 C 19,0 C
06.09.2012 17:46 18,9 C 46 % 1024,8 hPa 0,0 l/m 7,6 km/h (2 Bft) W-SW 247 7,0 C 18,9 C
06.09.2012 17:46 18,9 C 46 % 1024,8 hPa 0,0 l/m 7,6 km/h (2 Bft) W-SW 247 7,0 C 18,9 C
06.09.2012 17:51 18,7 C 47 % 1024,7 hPa 0,0 l/m 4,3 km/h (1 Bft) W 270 7,2 C 18,7 C
06.09.2012 17:51 18,7 C 47 % 1024,7 hPa 0,0 l/m 4,3 km/h (1 Bft) W 270 7,2 C 18,7 C
06.09.2012 17:56 18,6 C 47 % 1024,6 hPa 0,0 l/m 4,7 km/h (1 Bft) W 270 7,1 C 18,6 C
06.09.2012 17:56 18,6 C 47 % 1024,6 hPa 0,0 l/m 4,7 km/h (1 Bft) W 270 7,1 C 18,6 C
06.09.2012 18:01 18,7 C 48 % 1024,7 hPa 0,0 l/m 5,4 km/h (1 Bft) NW 315 7,5 C 18,7 C
06.09.2012 18:01 18,7 C 48 % 1024,7 hPa 0,0 l/m 5,4 km/h (1 Bft) NW 315 7,5 C 18,7 C
06.09.2012 18:06 18,9 C 47 % 1024,5 hPa 0,0 l/m 4,7 km/h (1 Bft) W 270 7,3 C 18,9 C
06.09.2012 18:06 18,9 C 47 % 1024,5 hPa 0,0 l/m 4,7 km/h (1 Bft) W 270 7,3 C 18,9 C
06.09.2012 18:11 18,9 C 47 % 1024,6 hPa 0,0 l/m 3,6 km/h (1 Bft) W-NW 292 7,3 C 18,9 C
06.09.2012 18:11 18,9 C 47 % 1024,6 hPa 0,0 l/m 3,6 km/h (1 Bft) W-NW 292 7,3 C 18,9 C
06.09.2012 18:16 18,9 C 47 % 1024,4 hPa 0,0 l/m 4,0 km/h (1 Bft) W-NW 292 7,3 C 18,9 C
06.09.2012 18:16 18,9 C 47 % 1024,4 hPa 0,0 l/m 4,0 km/h (1 Bft) W-NW 292 7,3 C 18,9 C
06.09.2012 18:21 19,0 C 47 % 1024,5 hPa 0,0 l/m 5,8 km/h (2 Bft) W 270 7,4 C 19,0 C
06.09.2012 18:21 19,0 C 47 % 1024,5 hPa 0,0 l/m 5,8 km/h (2 Bft) W 270 7,4 C 19,0 C
06.09.2012 18:26 19,1 C 47 % 1024,4 hPa 0,0 l/m 14,0 km/h (3 Bft) W 270 7,5 C 19,1 C
06.09.2012 18:26 19,1 C 47 % 1024,4 hPa 0,0 l/m 14,0 km/h (3 Bft) W 270 7,5 C 19,1 C
06.09.2012 18:31 19,0 C 46 % 1024,3 hPa 0,0 l/m 2,2 km/h (1 Bft) W-NW 292 7,1 C 19,0 C
06.09.2012 18:31 19,0 C 46 % 1024,3 hPa 0,0 l/m 2,2 km/h (1 Bft) W-NW 292 7,1 C 19,0 C
06.09.2012 18:36 18,9 C 46 % 1024,3 hPa 0,0 l/m 5,0 km/h (1 Bft) W 270 7,0 C 18,9 C
06.09.2012 18:36 18,9 C 46 % 1024,3 hPa 0,0 l/m 5,0 km/h (1 Bft) W 270 7,0 C 18,9 C
06.09.2012 18:41 18,8 C 47 % 1024,2 hPa 0,0 l/m 2,5 km/h (1 Bft) W-SW 247 7,2 C 18,8 C
06.09.2012 18:41 18,8 C 47 % 1024,2 hPa 0,0 l/m 2,5 km/h (1 Bft) W-SW 247 7,2 C 18,8 C
06.09.2012 18:46 18,6 C 47 % 1024,2 hPa 0,0 l/m 11,9 km/h (2 Bft) W 270 7,1 C 18,6 C
06.09.2012 18:46 18,6 C 47 % 1024,2 hPa 0,0 l/m 11,9 km/h (2 Bft) W 270 7,1 C 18,6 C
06.09.2012 18:51 18,5 C 47 % 1024,2 hPa 0,0 l/m 10,4 km/h (2 Bft) W-NW 292 7,0 C 18,5 C
06.09.2012 18:51 18,5 C 47 % 1024,2 hPa 0,0 l/m 10,4 km/h (2 Bft) W-NW 292 7,0 C 18,5 C
06.09.2012 18:56 18,4 C 47 % 1024,2 hPa 0,0 l/m 4,0 km/h (1 Bft) W-NW 292 6,9 C 18,4 C
06.09.2012 18:56 18,4 C 47 % 1024,2 hPa 0,0 l/m 4,0 km/h (1 Bft) W-NW 292 6,9 C 18,4 C
06.09.2012 19:01 18,3 C 48 % 1024,2 hPa 0,0 l/m 2,5 km/h (1 Bft) NW 315 7,1 C 18,3 C
06.09.2012 19:01 18,3 C 48 % 1024,2 hPa 0,0 l/m 2,5 km/h (1 Bft) NW 315 7,1 C 18,3 C
06.09.2012 19:06 18,2 C 48 % 1024,0 hPa 0,0 l/m 3,6 km/h (1 Bft) W 270 7,0 C 18,2 C
06.09.2012 19:06 18,2 C 48 % 1024,0 hPa 0,0 l/m 3,6 km/h (1 Bft) W 270 7,0 C 18,2 C
06.09.2012 19:11 18,1 C 48 % 1024,1 hPa 0,0 l/m 13,0 km/h (3 Bft) NW 315 6,9 C 18,1 C
06.09.2012 19:11 18,1 C 48 % 1024,1 hPa 0,0 l/m 13,0 km/h (3 Bft) NW 315 6,9 C 18,1 C
06.09.2012 19:16 17,8 C 48 % 1024,1 hPa 0,0 l/m 7,2 km/h (2 Bft) W 270 6,6 C 17,8 C
06.09.2012 19:16 17,8 C 48 % 1024,1 hPa 0,0 l/m 7,2 km/h (2 Bft) W 270 6,6 C 17,8 C
06.09.2012 19:21 17,5 C 49 % 1024,1 hPa 0,0 l/m 5,4 km/h (1 Bft) W-NW 292 6,7 C 17,5 C
06.09.2012 19:21 17,5 C 49 % 1024,1 hPa 0,0 l/m 5,4 km/h (1 Bft) W-NW 292 6,7 C 17,5 C
06.09.2012 19:26 17,3 C 49 % 1024,2 hPa 0,0 l/m 15,5 km/h (3 Bft) W 270 6,5 C 17,3 C
06.09.2012 19:26 17,3 C 49 % 1024,2 hPa 0,0 l/m 15,5 km/h (3 Bft) W 270 6,5 C 17,3 C
06.09.2012 19:31 17,0 C 50 % 1024,2 hPa 0,0 l/m 5,4 km/h (1 Bft) W 270 6,5 C 17,0 C
06.09.2012 19:31 17,0 C 50 % 1024,2 hPa 0,0 l/m 5,4 km/h (1 Bft) W 270 6,5 C 17,0 C
06.09.2012 19:36 16,9 C 50 % 1024,1 hPa 0,0 l/m 3,2 km/h (1 Bft) W 270 6,4 C 16,9 C
06.09.2012 19:36 16,9 C 50 % 1024,1 hPa 0,0 l/m 3,2 km/h (1 Bft) W 270 6,4 C 16,9 C
06.09.2012 19:41 16,6 C 50 % 1024,3 hPa 0,0 l/m 0,0 km/h (0 Bft) W 270 6,1 C 16,6 C
06.09.2012 19:41 16,6 C 50 % 1024,3 hPa 0,0 l/m 0,0 km/h (0 Bft) W 270 6,1 C 16,6 C
06.09.2012 19:46 16,4 C 51 % 1024,3 hPa 0,0 l/m 6,1 km/h (2 Bft) W-NW 292 6,2 C 16,4 C
06.09.2012 19:46 16,4 C 51 % 1024,3 hPa 0,0 l/m 6,1 km/h (2 Bft) W-NW 292 6,2 C 16,4 C
06.09.2012 19:51 16,3 C 51 % 1024,2 hPa 0,0 l/m 2,5 km/h (1 Bft) W 270 6,1 C 16,3 C
06.09.2012 19:51 16,3 C 51 % 1024,2 hPa 0,0 l/m 2,5 km/h (1 Bft) W 270 6,1 C 16,3 C
06.09.2012 19:56 16,1 C 52 % 1024,2 hPa 0,0 l/m 1,8 km/h (1 Bft) W 270 6,2 C 16,1 C
06.09.2012 19:56 16,1 C 52 % 1024,2 hPa 0,0 l/m 1,8 km/h (1 Bft) W 270 6,2 C 16,1 C
06.09.2012 20:01 15,9 C 53 % 1024,3 hPa 0,0 l/m 5,8 km/h (2 Bft) W 270 6,3 C 15,9 C
06.09.2012 20:01 15,9 C 53 % 1024,3 hPa 0,0 l/m 5,8 km/h (2 Bft) W 270 6,3 C 15,9 C
06.09.2012 20:06 15,8 C 53 % 1024,2 hPa 0,0 l/m 5,4 km/h (1 Bft) W 270 6,2 C 15,8 C
06.09.2012 20:06 15,8 C 53 % 1024,2 hPa 0,0 l/m 5,4 km/h (1 Bft) W 270 6,2 C 15,8 C
06.09.2012 20:11 15,6 C 54 % 1024,2 hPa 0,0 l/m 7,2 km/h (2 Bft) W 270 6,3 C 15,6 C
06.09.2012 20:11 15,6 C 54 % 1024,2 hPa 0,0 l/m 7,2 km/h (2 Bft) W 270 6,3 C 15,6 C
06.09.2012 20:16 15,5 C 54 % 1024,2 hPa 0,0 l/m 7,2 km/h (2 Bft) W 270 6,2 C 15,5 C
06.09.2012 20:16 15,5 C 54 % 1024,2 hPa 0,0 l/m 7,2 km/h (2 Bft) W 270 6,2 C 15,5 C
06.09.2012 20:21 15,3 C 54 % 1024,1 hPa 0,0 l/m 5,0 km/h (1 Bft) W 270 6,0 C 15,3 C
06.09.2012 20:21 15,3 C 54 % 1024,1 hPa 0,0 l/m 5,0 km/h (1 Bft) W 270 6,0 C 15,3 C
06.09.2012 20:26 15,2 C 55 % 1024,1 hPa 0,0 l/m 3,6 km/h (1 Bft) W 270 6,2 C 15,2 C
06.09.2012 20:26 15,2 C 55 % 1024,1 hPa 0,0 l/m 3,6 km/h (1 Bft) W 270 6,2 C 15,2 C
06.09.2012 20:31 15,1 C 55 % 1024,4 hPa 0,0 l/m 2,9 km/h (1 Bft) W 270 6,1 C 15,1 C
06.09.2012 20:31 15,1 C 55 % 1024,4 hPa 0,0 l/m 2,9 km/h (1 Bft) W 270 6,1 C 15,1 C
06.09.2012 20:36 14,9 C 56 % 1024,3 hPa 0,0 l/m 7,2 km/h (2 Bft) W 270 6,2 C 14,9 C
06.09.2012 20:36 14,9 C 56 % 1024,3 hPa 0,0 l/m 7,2 km/h (2 Bft) W 270 6,2 C 14,9 C
06.09.2012 20:41 14,9 C 56 % 1024,2 hPa 0,0 l/m 5,4 km/h (1 Bft) W 270 6,2 C 14,9 C
06.09.2012 20:41 14,9 C 56 % 1024,2 hPa 0,0 l/m 5,4 km/h (1 Bft) W 270 6,2 C 14,9 C
06.09.2012 20:46 14,9 C 56 % 1024,3 hPa 0,0 l/m 1,4 km/h (1 Bft) W 270 6,2 C 14,9 C
06.09.2012 20:46 14,9 C 56 % 1024,3 hPa 0,0 l/m 1,4 km/h (1 Bft) W 270 6,2 C 14,9 C
06.09.2012 20:51 14,8 C 57 % 1024,3 hPa 0,0 l/m 7,2 km/h (2 Bft) W 270 6,4 C 14,8 C
06.09.2012 20:51 14,8 C 57 % 1024,3 hPa 0,0 l/m 7,2 km/h (2 Bft) W 270 6,4 C 14,8 C
06.09.2012 20:56 14,6 C 57 % 1024,3 hPa 0,0 l/m 7,2 km/h (2 Bft) W 270 6,2 C 14,6 C
06.09.2012 20:56 14,6 C 57 % 1024,3 hPa 0,0 l/m 7,2 km/h (2 Bft) W 270 6,2 C 14,6 C
06.09.2012 21:01 14,6 C 57 % 1024,3 hPa 0,0 l/m 0,0 km/h (0 Bft) W 270 6,2 C 14,6 C
06.09.2012 21:01 14,6 C 57 % 1024,3 hPa 0,0 l/m 0,0 km/h (0 Bft) W 270 6,2 C 14,6 C
06.09.2012 21:06 14,5 C 57 % 1024,3 hPa 0,0 l/m 5,8 km/h (2 Bft) W 270 6,1 C 14,5 C
06.09.2012 21:06 14,5 C 57 % 1024,3 hPa 0,0 l/m 5,8 km/h (2 Bft) W 270 6,1 C 14,5 C
06.09.2012 21:11 14,4 C 58 % 1024,3 hPa 0,0 l/m 6,5 km/h (2 Bft) W 270 6,2 C 14,4 C
06.09.2012 21:11 14,4 C 58 % 1024,3 hPa 0,0 l/m 6,5 km/h (2 Bft) W 270 6,2 C 14,4 C
06.09.2012 21:16 14,4 C 58 % 1024,1 hPa 0,0 l/m 10,8 km/h (2 Bft) W 270 6,2 C 14,4 C
06.09.2012 21:16 14,4 C 58 % 1024,1 hPa 0,0 l/m 10,8 km/h (2 Bft) W 270 6,2 C 14,4 C
06.09.2012 21:21 14,3 C 59 % 1024,0 hPa 0,0 l/m 7,2 km/h (2 Bft) W 270 6,4 C 14,3 C
06.09.2012 21:21 14,3 C 59 % 1024,0 hPa 0,0 l/m 7,2 km/h (2 Bft) W 270 6,4 C 14,3 C
06.09.2012 21:26 14,2 C 59 % 1024,1 hPa 0,0 l/m 7,6 km/h (2 Bft) W 270 6,3 C 14,2 C
06.09.2012 21:26 14,2 C 59 % 1024,1 hPa 0,0 l/m 7,6 km/h (2 Bft) W 270 6,3 C 14,2 C
06.09.2012 21:31 14,1 C 59 % 1024,0 hPa 0,0 l/m 4,0 km/h (1 Bft) W 270 6,2 C 14,1 C
06.09.2012 21:31 14,1 C 59 % 1024,0 hPa 0,0 l/m 4,0 km/h (1 Bft) W 270 6,2 C 14,1 C
06.09.2012 21:36 14,1 C 60 % 1024,0 hPa 0,0 l/m 7,2 km/h (2 Bft) W 270 6,5 C 14,1 C
06.09.2012 21:36 14,1 C 60 % 1024,0 hPa 0,0 l/m 7,2 km/h (2 Bft) W 270 6,5 C 14,1 C
06.09.2012 21:41 14,0 C 60 % 1024,0 hPa 0,0 l/m 4,0 km/h (1 Bft) W 270 6,4 C 14,0 C
06.09.2012 21:41 14,0 C 60 % 1024,0 hPa 0,0 l/m 4,0 km/h (1 Bft) W 270 6,4 C 14,0 C
06.09.2012 21:46 13,9 C 60 % 1023,9 hPa 0,0 l/m 10,4 km/h (2 Bft) W-SW 247 6,3 C 13,9 C
06.09.2012 21:46 13,9 C 60 % 1023,9 hPa 0,0 l/m 10,4 km/h (2 Bft) W-SW 247 6,3 C 13,9 C
06.09.2012 21:51 13,9 C 60 % 1024,0 hPa 0,0 l/m 4,0 km/h (1 Bft) SW 225 6,3 C 13,9 C
06.09.2012 21:51 13,9 C 60 % 1024,0 hPa 0,0 l/m 4,0 km/h (1 Bft) SW 225 6,3 C 13,9 C
06.09.2012 21:56 13,9 C 60 % 1023,9 hPa 0,0 l/m 2,2 km/h (1 Bft) W-SW 247 6,3 C 13,9 C
06.09.2012 21:56 13,9 C 60 % 1023,9 hPa 0,0 l/m 2,2 km/h (1 Bft) W-SW 247 6,3 C 13,9 C
06.09.2012 22:01 13,9 C 60 % 1023,9 hPa 0,0 l/m 4,0 km/h (1 Bft) W-SW 247 6,3 C 13,9 C
06.09.2012 22:01 13,9 C 60 % 1023,9 hPa 0,0 l/m 4,0 km/h (1 Bft) W-SW 247 6,3 C 13,9 C
06.09.2012 22:06 13,9 C 61 % 1023,9 hPa 0,0 l/m 7,6 km/h (2 Bft) SW 225 6,5 C 13,9 C
06.09.2012 22:06 13,9 C 61 % 1023,9 hPa 0,0 l/m 7,6 km/h (2 Bft) SW 225 6,5 C 13,9 C
06.09.2012 22:11 13,8 C 61 % 1023,8 hPa 0,0 l/m 4,7 km/h (1 Bft) SW 225 6,4 C 13,8 C
06.09.2012 22:11 13,8 C 61 % 1023,8 hPa 0,0 l/m 4,7 km/h (1 Bft) SW 225 6,4 C 13,8 C
06.09.2012 22:16 13,8 C 61 % 1023,7 hPa 0,0 l/m 4,3 km/h (1 Bft) SW 225 6,4 C 13,8 C
06.09.2012 22:16 13,8 C 61 % 1023,7 hPa 0,0 l/m 4,3 km/h (1 Bft) SW 225 6,4 C 13,8 C
06.09.2012 22:21 13,8 C 61 % 1023,9 hPa 0,0 l/m 2,5 km/h (1 Bft) S-SW 202 6,4 C 13,8 C
06.09.2012 22:21 13,8 C 61 % 1023,9 hPa 0,0 l/m 2,5 km/h (1 Bft) S-SW 202 6,4 C 13,8 C
06.09.2012 22:26 13,6 C 62 % 1023,7 hPa 0,0 l/m 2,9 km/h (1 Bft) SW 225 6,5 C 13,6 C
06.09.2012 22:26 13,6 C 62 % 1023,7 hPa 0,0 l/m 2,9 km/h (1 Bft) SW 225 6,5 C 13,6 C
06.09.2012 22:31 13,6 C 62 % 1023,7 hPa 0,0 l/m 6,8 km/h (2 Bft) SW 225 6,5 C 13,6 C
06.09.2012 22:31 13,6 C 62 % 1023,7 hPa 0,0 l/m 6,8 km/h (2 Bft) SW 225 6,5 C 13,6 C
06.09.2012 22:36 13,6 C 62 % 1023,6 hPa 0,0 l/m 3,2 km/h (1 Bft) S-SW 202 6,5 C 13,6 C
06.09.2012 22:36 13,6 C 62 % 1023,6 hPa 0,0 l/m 3,2 km/h (1 Bft) S-SW 202 6,5 C 13,6 C
06.09.2012 22:41 13,6 C 62 % 1023,7 hPa 0,0 l/m 3,2 km/h (1 Bft) W-SW 247 6,5 C 13,6 C
06.09.2012 22:41 13,6 C 62 % 1023,7 hPa 0,0 l/m 3,2 km/h (1 Bft) W-SW 247 6,5 C 13,6 C
06.09.2012 22:46 13,7 C 62 % 1023,5 hPa 0,0 l/m 4,7 km/h (1 Bft) SW 225 6,6 C 13,7 C
06.09.2012 22:46 13,7 C 62 % 1023,5 hPa 0,0 l/m 4,7 km/h (1 Bft) SW 225 6,6 C 13,7 C
06.09.2012 22:51 13,7 C 62 % 1023,6 hPa 0,0 l/m 4,7 km/h (1 Bft) W-SW 247 6,6 C 13,7 C
06.09.2012 22:51 13,7 C 62 % 1023,6 hPa 0,0 l/m 4,7 km/h (1 Bft) W-SW 247 6,6 C 13,7 C
06.09.2012 22:56 13,8 C 62 % 1023,5 hPa 0,0 l/m 7,2 km/h (2 Bft) W-SW 247 6,6 C 13,8 C
06.09.2012 22:56 13,8 C 62 % 1023,5 hPa 0,0 l/m 7,2 km/h (2 Bft) W-SW 247 6,6 C 13,8 C
06.09.2012 23:01 13,8 C 62 % 1023,6 hPa 0,0 l/m 5,4 km/h (1 Bft) W 270 6,6 C 13,8 C
06.09.2012 23:01 13,8 C 62 % 1023,6 hPa 0,0 l/m 5,4 km/h (1 Bft) W 270 6,6 C 13,8 C
06.09.2012 23:06 13,8 C 62 % 1023,4 hPa 0,0 l/m 4,7 km/h (1 Bft) W-SW 247 6,6 C 13,8 C
06.09.2012 23:06 13,8 C 62 % 1023,4 hPa 0,0 l/m 4,7 km/h (1 Bft) W-SW 247 6,6 C 13,8 C
06.09.2012 23:11 13,8 C 62 % 1023,5 hPa 0,0 l/m 5,8 km/h (2 Bft) W-SW 247 6,6 C 13,8 C
06.09.2012 23:11 13,8 C 62 % 1023,5 hPa 0,0 l/m 5,8 km/h (2 Bft) W-SW 247 6,6 C 13,8 C
06.09.2012 23:16 13,8 C 62 % 1023,5 hPa 0,0 l/m 4,3 km/h (1 Bft) W-SW 247 6,6 C 13,8 C
06.09.2012 23:16 13,8 C 62 % 1023,5 hPa 0,0 l/m 4,3 km/h (1 Bft) W-SW 247 6,6 C 13,8 C
06.09.2012 23:21 13,8 C 62 % 1023,5 hPa 0,0 l/m 5,4 km/h (1 Bft) W 270 6,6 C 13,8 C
06.09.2012 23:21 13,8 C 62 % 1023,5 hPa 0,0 l/m 5,4 km/h (1 Bft) W 270 6,6 C 13,8 C
06.09.2012 23:26 13,8 C 62 % 1023,2 hPa 0,0 l/m 3,6 km/h (1 Bft) SW 225 6,6 C 13,8 C
06.09.2012 23:26 13,8 C 62 % 1023,2 hPa 0,0 l/m 3,6 km/h (1 Bft) SW 225 6,6 C 13,8 C
06.09.2012 23:31 13,7 C 63 % 1023,1 hPa 0,0 l/m 0,0 km/h (0 Bft) SW 225 6,8 C 13,7 C
06.09.2012 23:31 13,7 C 63 % 1023,1 hPa 0,0 l/m 0,0 km/h (0 Bft) SW 225 6,8 C 13,7 C
06.09.2012 23:36 13,8 C 63 % 1023,0 hPa 0,0 l/m 8,3 km/h (2 Bft) W 270 6,9 C 13,8 C
06.09.2012 23:36 13,8 C 63 % 1023,0 hPa 0,0 l/m 8,3 km/h (2 Bft) W 270 6,9 C 13,8 C
06.09.2012 23:41 13,7 C 63 % 1023,1 hPa 0,0 l/m 5,8 km/h (2 Bft) SW 225 6,8 C 13,7 C
06.09.2012 23:41 13,7 C 63 % 1023,1 hPa 0,0 l/m 5,8 km/h (2 Bft) SW 225 6,8 C 13,7 C
06.09.2012 23:46 13,6 C 63 % 1023,1 hPa 0,0 l/m 4,7 km/h (1 Bft) W-SW 247 6,7 C 13,6 C
06.09.2012 23:46 13,6 C 63 % 1023,1 hPa 0,0 l/m 4,7 km/h (1 Bft) W-SW 247 6,7 C 13,6 C
06.09.2012 23:51 13,6 C 63 % 1023,2 hPa 0,0 l/m 4,7 km/h (1 Bft) W 270 6,7 C 13,6 C
06.09.2012 23:51 13,6 C 63 % 1023,2 hPa 0,0 l/m 4,7 km/h (1 Bft) W 270 6,7 C 13,6 C
06.09.2012 23:56 13,7 C 63 % 1023,2 hPa 0,0 l/m 11,9 km/h (2 Bft) W-SW 247 6,8 C 13,7 C
06.09.2012 23:56 13,7 C 63 % 1023,2 hPa 0,0 l/m 11,9 km/h (2 Bft) W-SW 247 6,8 C 13,7 C
_ Min-Zeit 07:01 14:21 00:01 - 06:11 - - 20:21 07:01
Minimum _ 11,1 C 43 % 1022,5 hPa - 0,0 km/h (0 Bft) - - 6,0 C 11,1 C
_ Max-Zeit 14:21 07:06 10:36 00:01 09:51 - - 04:36 14:21
Maximum _ 19,9 C 82 % 1026,2 hPa 0,0 l/m 29,2 km/h
N (5 Bft)
- - 9,2 C 19,9 C
Durchschnitt _ 15,5 C 61 % 1024,6 hPa #0,0 l/m 7,3 km/h (2 Bft) W-NW - 7,6 C 15,5 C
(c) by David Heller